Regional Weather Roundup
Issued by NWS

Home | Current Version | Previous Version | Text Only | Print | Product List | Glossary Off
Versions: 1 2 3 4 5 6 7 8 9 10 11 12 13 14 15 16 17 18 19 20 21 22 23 24 25 26 27 28 29 30 31 32 33 34 35 36 37 38 39 40 41 42 43 44 45 46 47 48 49 50

000
ASUS45 KCYS 291310
RWRWY

WYOMING REGIONAL WEATHER ROUNDUP
NATIONAL WEATHER SERVICE CHEYENNE WY
700 AM MDT WED JUL 29 2015

NOTE:  "FAIR" INDICATES FEW OR NO CLOUDS BELOW 12,000 FEET
WITH NO SIGNIFICANT WEATHER AND/OR OBSTRUCTIONS TO VISIBILITY.

WYZ001-291400-
YELLOWSTONE NATIONAL PARK

CITY           SKY/WX    TMP DP  RH WIND       PRES   REMARKS
LK YELLOWSTONE   N/A     30  27  88 W3        30.49R
W YELLOWSTONE  NOT AVBL

$$
WYZ002>013-054>058-071-098>099-291400-
NORTHERN WYOMING

CITY           SKY/WX    TMP DP  RH WIND       PRES   REMARKS
JACKSON        FAIR      34  32  93 NW3       30.46R
CODY           FAIR      54  34  47 SW8       30.34R
GREYBULL       FAIR      49  36  61 SE5       30.31R
WORLAND        FAIR      50  31  48 SW5       30.32R
SHERIDAN       FAIR      55  37  50 CALM      30.28R
BUFFALO        FAIR      58  33  39 SW6       30.34R
GILLETTE       FAIR      59  37  44 SW10      30.30R
HULETT         FAIR      55  37  50 SW9       30.30R
NEWCASTLE      FAIR      50  37  62 CALM      30.32S

$$
WYZ014>020-022>026-101>103-291400-
CENTRAL WYOMING

CITY           SKY/WX    TMP DP  RH WIND       PRES   REMARKS
BIG PINEY      FAIR      35  26  69 CALM      30.45R
PINEDALE       FAIR      34  30  86 W3        30.45R
DUBOIS         FAIR      37  27  65 NW13      30.44R WCI  29
LANDER         FAIR      48  30  49 CALM      30.36R
RIVERTON       FAIR      50  30  46 NW8       30.37R
CASPER         FAIR      44  32  62 CALM      30.36R
DOUGLAS        FAIR      46  33  60 CALM      30.37R

$$
WYZ021-027>030-104>119-291400-
SOUTHERN WYOMING

CITY           SKY/WX    TMP DP  RH WIND       PRES   REMARKS
EVANSTON       FAIR      41  23  48 CALM      30.43R
KEMMERER       FAIR      37  30  75 N12       30.45R WCI  30
FORT BRIDGER   SUNNY     48  25  40 SW6       30.46R
ROCK SPRINGS   FAIR      45  23  42 SW3       30.42R
DIXON          FAIR      38  27  64 CALM      30.41R
RAWLINS        FAIR      44  23  43 N5        30.41R
SARATOGA       FAIR      37  27  65 CALM      30.41R
LARAMIE        FAIR      47  34  60 S7        30.40R
CHEYENNE       FAIR      50  36  58 NW5       30.38R
TORRINGTON     FAIR      49  40  71 CALM      30.32R
PINE BLUFFS    PTSUNNY   48  41  76 CALM      30.36R

$$


USA.gov is the U.S. government's official web portal to all federal, state and local government web resources and services.